Simultaneous Nadir Overpasses (SNOs) Predictions

Prediction of SNOs between AQUA and METOP-B Satellite Orbit:

Table of predicted SNOs for the next 14.0 days since TLE Epoch: 12/17/2022
Index Date (AQUA) Time (AQUA) Lat,Lon (AQUA) SZA (AQUA ) Date (METOP-B) Time (METOP-B) Lat,Lon (METOP-B) SZA (METOP-B ) Distance(km) Time Diff (sec)
1 12/18/2022 15:58:24 -74.15, 115.54 82.51 12/18/2022 15:58:03 -74.15, 115.51 82.51 1.01 21
2 12/18/2022 16:47:52 74.23, -77.01 97.58 12/18/2022 16:48:42 74.20, -77.03 97.55 3.26 50
3 12/21/2022 10:42:06 74.18, 14.57 97.57 12/21/2022 10:41:44 74.19, 14.69 97.59 3.85 22
4 12/21/2022 11:31:32 -74.23,-177.89 82.39 12/21/2022 11:32:25 -74.22,-177.91 82.39 0.65 53
5 12/24/2022 05:25:45 -74.16, -86.28 82.47 12/24/2022 05:25:28 -74.16, -86.33 82.47 1.61 17
6 12/24/2022 06:15:13 74.25, 81.15 97.63 12/24/2022 06:16:06 74.25, 81.25 97.63 2.99 53
7 12/26/2022 23:19:48 -73.67, 6.29 83.05 12/26/2022 23:18:40 -73.59, 4.05 83.07 70.78 68
8 12/27/2022 00:09:24 74.18, 172.78 97.48 12/27/2022 00:09:08 74.18, 172.80 97.48 0.68 16
9 12/27/2022 00:58:50 -74.22, -19.66 82.48 12/27/2022 00:59:49 -74.21, -19.78 82.49 3.70 59
10 12/29/2022 18:03:28 73.73, -94.73 96.88 12/29/2022 18:02:20 73.65, -96.73 96.86 63.01 68
11 12/29/2022 18:53:02 -74.19, 71.88 82.65 12/29/2022 18:52:51 -74.18, 71.89 82.65 0.59 11
12 12/29/2022 19:42:29 74.23,-120.59 97.41 12/29/2022 19:43:30 74.22,-120.67 97.39 2.94 61



Historial Predications of SNOs between AQUA and METOP-B
